STARLINK-32494, 62053

Orbit data source: Space-Track

STARLINK-32494, 62053 is a payload satellite owned by SpaceX/Seattle (US) in LEO that was launched on Thu, 21 Nov 2024 UTC via an FALCON 9 launch vehicle from the Air Force Eastern Test Range (AFETR). Payload-class satellites include a variety of spacecraft equipped with specific instruments for various scientific and technological missions. These include communications satellites like Starlink; space stations such as the ISS; scientific satellites like the Hubble; Earth observation satellites from companies like Planet Labs, Umbra, and HawkEye 360; GPS; miniature CubeSats for education and research; and military/defense satellites.

Loading next visibility...
Identifier
62053, 2024-216X
Orbit
LEO
Country
Flag of USUS
Related business
Manufacturer
SpaceX/Seattle
Mission
Operational Commercial Communications
Bus & Motor
STARLINK V2M, Unknown motor
Mass
730 kg wet, ~700 kg dry
Launch date (UTC)
2024-11-21 (2 years ago)
Launch vehicle
FALCON 9
Launch site
Air Force Eastern Test Range (AFETR)
Object type
Payload
Rocket body
Debris
Shape & HBR
Box + 2 Pan, 17.7 m
Radar Cross Section
33.884 m², Large (>1 m²)

Expand to show TLE details & history
Last TLE update: 1 day ago

TLE from 1 day ago
0 STARLINK-32494
1 62053U 24216X   26207.04471039  .00018304  00000-0  67285-3 0  9993
2 62053  42.9982 202.0288 0001147 258.7798 101.2925 15.27588499 94958
Epoch: 2026-07-26T01:04Z
TLE epoch observation values (Epoch: 2026-07-26T01:04:22.977Z)
Latitude
-0.00001°
Longitude
-117.81523°
Altitude
482.953 km
Speed
7.626 km/s
True Right ascension
13h 28m 06s
True Declination
0° 00' 00"
Sunlit
Object was in daylight at epoch
Visualization orbit readout
Latitude
Unknown
Longitude
Unknown
Altitude
Unknown
Speed
Unknown
Apparent Right ascension
Unknown
Apparent Declination
Unknown
Sunlit
N/A
Visualization observer readout
Local Sidereal Time
19:09:49
Azimuth
Unknown
Elevation
Unknown
Doppler factor
Unknown
Orbital elements
Apogee altitude
485.756 km
Perigee altitude
484.182 km
Semi-major axis
6,863.106 km
Eccentricity
0.00011
Inclination
42.9982°
RAAN
202.0288°
Arg. of periapsis
258.7798°
True anomaly
101.30539°
Mean anomaly
101.2925°
Eccentric anomaly
101.29894°
Mean motion
3.81735 °/min
Orbital period
94.31 mins
BSTAR
0.00067285
Loading maneuver chart data...
Computing Atmospheric mass density...
Loading historical data...
Loading historical data...
Loading historical data...
Loading historical data...
Loading historical data...
Loading historical data...
Loading historical data...

Documentation

Showing up to 5 results
|